Location: Shepherdstown, WV
(39.4326°N, 77.8042°W)
Time: 02:02:59
(UTC-04:00)

X-37B - Pass Details

Date: 30 June 2021
Orbit: 383 x 392 km, 45.0° (Epoch: 01 July)

Event Time Altitude Azimuth Distance (km) Brightness Sun altitude
Rises 22:17:49 0° 293° (WNW) 2,258 5.7 -15.0°
Reaches altitude 10° 22:20:01 10° 304° (WNW) 1,403 4.6 -15.3°
Maximum altitude 22:22:54 31° 9° (N) 694 2.2 -15.7°
Enters shadow 22:25:13 14° 70° (ENE) 1,204 2.9 -16.0°
